[[{"header":{"parameterUnit":"m.s-1","parameterCategory":1,"la1":30.2992,"la2":30.254,"lo1":-89.0895,"lo2":-89.0443,"dy":0.0025,"dx":0.0025,"nx":19,"ny":19,"refTime":"2026-04-28T09:00:00:Z","depth":0,"parameterNumber":2,"parameterNumberName":"U-component_of_WINDS"},"data":[0,0,0,-0.7152,-0.7153,-0.7207,-0.7207,-0.7274,-0.7275,0,0,0,0,0,0,0,0,0,0,0,-0.7134,-0.7134,-0.7152,-0.7154,-0.7207,-0.7207,-0.7274,-0.7275,0,0,0,0,0,0,0,0,0,0,0,-0.7134,-0.7134,-0.7135,-0.7154,-0.7207,-0.7208,-0.7274,-0.7234,0,0,0,0,0,0,0,0,0,0,-0.7183,-0.7163,-0.7134,-0.7135,-0.7154,-0.7207,-0.7208,-0.7233,-0.7237,-0.7249,0,-0.7257,0,-0.7267,-0.7279,-0.7279,0,0,0,-0.7156,-0.7159,-0.7176,-0.7135,-0.7155,-0.7207,-0.7184,-0.7235,-0.724,-0.7254,-0.7258,-0.7261,-0.7268,-0.7279,-0.728,-0.7336,-0.7337,0,0,-0.7153,-0.7143,-0.7172,-0.7179,-0.7169,-0.7182,-0.7185,-0.7238,-0.7242,-0.7258,-0.7262,-0.7269,-0.728,-0.728,-0.7336,-0.7337,0,0,0,-0.7143,-0.714,-0.7156,-0.7176,-0.7186,-0.7183,-0.7187,-0.724,-0.7245,-0.7263,-0.727,-0.728,-0.7281,-0.7336,-0.7336,-0.7334,0,0,0,-0.7141,-0.7134,-0.7154,-0.7149,-0.7185,-0.7213,-0.7188,-0.7242,-0.7248,-0.7269,-0.728,-0.7282,-0.7336,-0.7336,-0.7333,-0.7334,0,0,0,-0.7131,-0.7133,-0.714,-0.7148,-0.717,-0.7212,-0.7221,-0.7243,-0.7252,-0.7279,-0.7282,-0.7336,-0.7336,-0.7333,-0.7334,-0.7346,0,0,0,-0.7118,-0.7137,-0.714,-0.7164,-0.717,-0.721,-0.7221,-0.7252,-0.7275,-0.728,-0.7336,-0.7336,-0.7333,-0.7334,-0.7346,-0.7355,-0.7357,0,0,-0.7137,-0.7139,-0.7154,-0.7158,-0.7195,-0.7203,-0.724,-0.7271,-0.7284,-0.7319,-0.732,-0.7334,-0.7334,-0.7346,-0.7376,-0.7377,0,0,0,-0.7157,-0.7167,-0.718,-0.72,-0.7224,-0.7245,-0.7271,-0.7283,-0.7313,-0.7299,-0.7342,-0.7342,-0.735,-0.7355,-0.7356,-0.7364,-0.7338,-0.7338,-0.7338,-0.7168,-0.7183,-0.7209,-0.723,-0.725,-0.7277,-0.7296,-0.7316,-0.7326,-0.7335,-0.7346,-0.7362,-0.7367,-0.7368,-0.7376,-0.7352,-0.7352,-0.7352,-0.7352,-0.7197,-0.7215,-0.7226,-0.7255,-0.7271,-0.7297,-0.7324,-0.733,-0.7357,-0.7355,-0.7363,-0.7359,-0.737,-0.7377,-0.7352,-0.7352,-0.7352,-0.7352,-0.7352,-0.7206,-0.7217,-0.723,-0.7262,-0.7285,-0.7307,-0.7332,-0.7345,-0.7359,-0.7366,-0.7379,-0.7379,-0.7381,-0.7371,-0.7371,-0.7371,-0.7371,-0.7371,-0.7371,-0.7211,-0.7226,-0.7244,-0.7271,-0.7286,-0.7309,-0.7337,-0.7353,-0.7374,-0.7382,-0.7382,-0.7391,-0.7368,-0.7362,-0.7372,-0.7372,-0.7372,-0.7372,-0.7372,-0.7235,-0.7231,-0.726,-0.7275,-0.7308,-0.7331,-0.7348,-0.7379,-0.7395,-0.7407,-0.7414,-0.7395,-0.7399,-0.7397,-0.7392,-0.741,-0.741,-0.741,-0.741,-0.7243,-0.7246,-0.7278,-0.7302,-0.7327,-0.7345,-0.7379,-0.7401,-0.7424,-0.7435,-0.7434,-0.7429,-0.7427,-0.7432,-0.743,-0.7426,-0.7452,-0.7452,-0.7452,-0.7259,-0.7265,-0.729,-0.7311,-0.7338,-0.7361,-0.7393,-0.7421,-0.7447,-0.7454,-0.7444,-0.7442,-0.7433,-0.743,-0.7437,-0.7433,-0.7426,0,0]},{"header":{"parameterUnit":"m.s-1","parameterCategory":1,"la1":30.2992,"la2":30.254,"lo1":-89.0895,"lo2":-89.0443,"dy":0.0025,"dx":0.0025,"nx":19,"ny":19,"refTime":"2026-04-28T09:00:00:Z","depth":0,"parameterNumber":3,"parameterNumberName":"V-component_of_WINDS"},"data":[0,0,0,4.6121,4.6124,4.6254,4.6254,4.6428,4.643,0,0,0,0,0,0,0,0,0,0,0,4.609,4.6091,4.612,4.6124,4.6254,4.6254,4.6428,4.643,0,0,0,0,0,0,0,0,0,0,0,4.6089,4.6091,4.6093,4.6124,4.6254,4.6254,4.6427,4.6326,0,0,0,0,0,0,0,0,0,0,4.6198,4.6178,4.609,4.6093,4.6125,4.6254,4.6254,4.6321,4.6332,4.6373,0,4.6415,0,4.6425,4.6442,4.6443,0,0,0,4.6117,4.6168,4.6197,4.6093,4.6126,4.6253,4.6193,4.6327,4.634,4.6388,4.6417,4.6423,4.6428,4.6443,4.6444,4.6708,4.671,0,0,4.611,4.6116,4.6188,4.6205,4.6189,4.6189,4.6197,4.6335,4.6365,4.6417,4.6427,4.6431,4.6445,4.6446,4.6707,4.6709,0,0,0,4.6094,4.6112,4.6137,4.6199,4.6222,4.6193,4.6203,4.6359,4.6367,4.6429,4.6433,4.6446,4.6448,4.6705,4.6708,4.679,0,0,0,4.6089,4.6102,4.6134,4.6139,4.6219,4.6293,4.6224,4.6357,4.6372,4.6432,4.6446,4.645,4.6704,4.6707,4.6784,4.6828,0,0,0,4.6078,4.6101,4.6123,4.6139,4.6195,4.629,4.6306,4.636,4.6375,4.6443,4.645,4.6702,4.6706,4.6779,4.6819,4.6899,0,0,0,4.6068,4.6193,4.6124,4.6265,4.6194,4.6341,4.6305,4.6413,4.6481,4.6447,4.6704,4.6707,4.6777,4.6814,4.6893,4.6967,4.6999,0,0,4.6229,4.6213,4.6295,4.6237,4.6398,4.6321,4.6493,4.6548,4.6547,4.6654,4.666,4.6786,4.6818,4.6897,4.7174,4.7199,0,0,0,4.6348,4.6408,4.6449,4.6515,4.6562,4.6604,4.6632,4.6652,4.6743,4.6604,4.6836,4.6855,4.6901,4.6936,4.6958,4.6996,4.6724,4.6724,4.6723,4.6585,4.6579,4.6715,4.6725,4.6789,4.6817,4.6867,4.6898,4.6872,4.6927,4.6959,4.7128,4.7169,4.7185,4.7225,4.6998,4.6998,4.6998,4.6998,4.6821,4.6903,4.6867,4.6985,4.6977,4.7075,4.7106,4.7084,4.7173,4.7103,4.7143,4.7068,4.7213,4.7247,4.7005,4.7003,4.7003,4.7002,4.7002,4.6975,4.7013,4.7037,4.7131,4.7203,4.7207,4.7295,4.7284,4.7273,4.7313,4.7345,4.7343,4.734,4.7329,4.733,4.733,4.7331,4.7331,4.7332,4.7126,4.7149,4.7226,4.7285,4.7325,4.7377,4.7405,4.7443,4.7483,4.7467,4.7467,4.7435,4.7228,4.7176,4.7341,4.7339,4.7338,4.7337,4.7336,4.7366,4.731,4.7428,4.7468,4.7536,4.7608,4.7593,4.7672,4.7701,4.7744,4.7703,4.7553,4.7534,4.7517,4.7474,4.7705,4.7705,4.7705,4.7705,4.7496,4.7486,4.7603,4.7669,4.7731,4.7729,4.7859,4.7882,4.7896,4.7913,4.7878,4.7819,4.7803,4.7794,4.7771,4.773,4.8022,4.8022,4.8023,4.7643,4.7638,4.7753,4.7768,4.782,4.7864,4.7986,4.8059,4.8063,4.8035,4.7926,4.7913,4.7819,4.7789,4.7758,4.7723,4.7648,0,0]}]]